User: anonymous   Login
Location: Mauries
(43.6188°N, 0.3322°W)
Time: 20:38:52
(UTC+00:00)
Language:

CUTE 1.7 + AOD 2 - Orbit

View from above orbital plane
View from above orbital plane
View from above satellite
View from above satellite

Ground track
Ground track

The orbit is defined by the following mean orbital elements,

1 32785U          26135.23222227 +.00000000 +00000-0 +21474-3 0 00008
2 32785  97.8261 115.9779 0010154 133.5668 226.6405 15.09118471    04
Epoch (UTC): 15 May 2026 05:34:24
Eccentricity: 0.0010154
inclination: 97.8261°
perigee height: 532 km
apogee height: 546 km
right ascension of ascending node: 115.9779°
argument of perigee: 133.5668°
revolutions per day: 15.09118471
mean anomaly at epoch: 226.6405°

The dashed part of the orbit path shows where the satellite is in the earth's shadow,  

DLR